logo tempoitalia

Diretta Meteo Williamtown Arp, Australiasabato 20 agosto ore 16:00

Mappa
Sereno 19 °C Sereno 24 Ore: T.min 6 T.max 19
Ponente Ovest Km/h 27.8 Punto di rugiada: 4 °C Umidità: 37% Visibilità: 10 Km
Il sole sorge alle: 06:23 Il sole tramonta alle: 17:28
20 Agosto 2022 16:00 tempo osservato: Sereno Sereno 19 37 1019 vento: Nord O 27.8
20 Agosto 2022 15:30 tempo osservato: Sereno Sereno 19 37 1018 vento: Nord O/NO 29.6
20 Agosto 2022 15:00 tempo osservato: Sereno Sereno 19 34 1018 vento: Nord O/NO 31.5
20 Agosto 2022 14:30 tempo osservato: Sereno Sereno 19 37 1018 vento: Nord O/NO 29.6
20 Agosto 2022 14:00 tempo osservato: Sereno Sereno 19 34 1019 vento: Nord O 31.5
20 Agosto 2022 13:30 tempo osservato: Sereno Sereno 19 32 1019 vento: Nord O/NO 31.5
20 Agosto 2022 13:00 tempo osservato: Sereno Sereno 19 34 1019 vento: Nord O 27.8
20 Agosto 2022 12:30 tempo osservato: Sereno Sereno 18 36 1019 vento: Nord O/NO 27.8
20 Agosto 2022 12:00 tempo osservato: Sereno Sereno 17 39 1019 vento: Nord O 27.8
20 Agosto 2022 11:30 tempo osservato: Sereno Sereno 17 39 1020 vento: Nord O/NO 29.6
20 Agosto 2022 11:00 tempo osservato: Sereno Sereno 16 44 1020 vento: Nord O 29.6
20 Agosto 2022 10:30 tempo osservato: Sereno Sereno 15 51 1021 vento: Nord O/NO 27.8
20 Agosto 2022 10:00 tempo osservato: Sereno Sereno 14 58 1021 vento: Nord O/NO 31.5
20 Agosto 2022 09:30 tempo osservato: Sereno Sereno 13 62 1021 vento: Nord O/NO 29.6
20 Agosto 2022 09:00 tempo osservato: Sereno Sereno 12 66 1021 vento: Nord O/NO 27.8
20 Agosto 2022 08:30 tempo osservato: Sereno Sereno 11 71 1021 vento: Nord O/NO 20.3
20 Agosto 2022 08:00 tempo osservato: Sereno Sereno 9 81 1021 vento: Nord O/NO 20.3
20 Agosto 2022 07:30 tempo osservato: Sereno Sereno 9 81 1020 vento: Nord O/NO 18.5
20 Agosto 2022 07:00 tempo osservato: Sereno Sereno 7 87 1020 vento: Nord O/NO 13
20 Agosto 2022 06:30 tempo osservato: Sereno Sereno 7 87 1020 vento: Nord NO 11.1
20 Agosto 2022 06:00 tempo osservato: Sereno Sereno 6 93 1020 vento: Nord NO 11.1
20 Agosto 2022 05:30 tempo osservato: Sereno Sereno 6 93 1020 vento: Nord NO 11.1
20 Agosto 2022 05:00 tempo osservato: Sereno Sereno 7 87 1019 vento: Nord N 5.5
20 Agosto 2022 04:30 tempo osservato: Sereno Sereno 7 87 1019 vento: Nord NO 9.3
20 Agosto 2022 04:00 tempo osservato: Sereno Sereno 7 87 1019 vento: Nord O/NO 13
20 Agosto 2022 03:30 tempo osservato: Sereno Sereno 8 81 1019 vento: Nord O/NO 16.7
20 Agosto 2022 03:00 tempo osservato: Sereno Sereno 8 81 1019 vento: Nord O/NO 16.7
20 Agosto 2022 02:30 tempo osservato: Sereno Sereno 8 81 1019 vento: Nord O/NO 16.7
20 Agosto 2022 02:00 tempo osservato: Sereno Sereno 9 75 1019 vento: Nord O/NO 18.5
20 Agosto 2022 01:30 tempo osservato: Sereno Sereno 10 71 1019 vento: Nord O/NO 16.7
20 Agosto 2022 01:00 tempo osservato: Sereno Sereno 10 71 1019 vento: Nord O/NO 18.5
20 Agosto 2022 00:30 tempo osservato: Sereno Sereno 10 71 1019 vento: Nord O/NO 18.5
20 Agosto 2022 00:00 tempo osservato: Sereno Sereno 10 71 1019 vento: Nord O/NO 16.7
19 Agosto 2022 23:30 tempo osservato: Sereno Sereno 9 75 1019 vento: Nord NO 13
19 Agosto 2022 23:00 tempo osservato: Sereno Sereno 10 71 1019 vento: Nord NO 13
19 Agosto 2022 22:30 tempo osservato: Sereno Sereno 10 71 1018 vento: Nord O/NO 13
19 Agosto 2022 22:00 tempo osservato: Sereno Sereno 11 71 1018 vento: Nord O/NO 16.7
19 Agosto 2022 21:30 tempo osservato: Sereno Sereno 11 71 1018 vento: Nord NO 13
19 Agosto 2022 21:00 tempo osservato: Sereno Sereno 14 54 1018 vento: Nord O 18.5
19 Agosto 2022 20:30 tempo osservato: Coperto Coperto 14 58 1017 vento: Nord O 16.7
19 Agosto 2022 20:00 tempo osservato: Molto Nuvoloso Molto Nuvoloso 15 58 1017 vento: Nord O 14.8
19 Agosto 2022 19:30 tempo osservato: Coperto Coperto 15 62 1016 vento: Nord O 16.7
19 Agosto 2022 19:00 tempo osservato: Coperto Coperto 16 58 1016 vento: Nord O 16.7
19 Agosto 2022 18:30 tempo osservato: Molto Nuvoloso Molto Nuvoloso 16 63 1015 vento: Nord O 16.7
19 Agosto 2022 18:00 tempo osservato: Coperto Coperto 16 63 1014 vento: Nord O/NO 22.2
19 Agosto 2022 17:30 tempo osservato: Nuvoloso Nuvoloso 16 63 1013 vento: Nord O/NO 24
19 Agosto 2022 17:00 tempo osservato: Sereno Sereno 17 55 1012 vento: Nord O/NO 29.6
19 Agosto 2022 16:37 tempo osservato: Nuvoloso Nuvoloso 19 52 1012 vento: Nord O/NO 33.3